Location: Newark
(54.4000°N, 32.4500°E)
Time: 15:16:16
(UTC+00:00)

Envisat - Pass Details

Date: 23 January 2020
Orbit: 764 x 766 km, 98.1° (Epoch: 17 February)

Event Time Altitude Azimuth Distance (km) Brightness Sun altitude
Rises 15:24:03 0° 164° (SSE) 3,224 6.3 -10.4°
Reaches altitude 10° 15:26:20 10° 165° (SSE) 2,301 5.5 -10.7°
Maximum altitude 15:31:26 85° 255° (WSW) 777 3.1 -11.4°
Drops below altitude 10° 15:36:33 10° 344° (NNW) 2,317 5.5 -12.1°
Sets 15:38:52 0° 345° (NNW) 3,248 6.2 -12.5°
